Terminal Aerodrome Forecast
Issued by NWS Sioux Falls, SD

Home | Current Version | Previous Version | Text Only | Print | Product List | Glossary Off
Versions: 1 2 3 4 5 6 7 8 9 10 11 12 13 14 15 16 17 18

770
FTUS43 KFSD 190520
TAFFSD
TAF
KFSD 190520Z 1906/2006 16009KT P6SM BKN025
     FM190900 15011KT 4SM BR OVC006
     FM191000 14011KT 2SM BR OVC003
      TEMPO 1910/1913 3/4SM BR
     FM191600 15014G20KT P6SM BKN010
     FM191900 15017G25KT P6SM BKN150=

USA.gov is the U.S. government's official web portal to all federal, state and local government web resources and services.